Location: Barcelona
(41.3830°N, 2.1830°E)
Time: 05:38:17
(UTC+01:00)

ISS - Pass Details

Date: 15 November 2019
Orbit: 412 x 421 km, 51.6° (Epoch: 12 November)

Event Time Altitude Azimuth Distance (km) Brightness Sun altitude
Exits shadow 05:49:44 10° 188° (S) 1,493 -1.0 -20.5°
Drops below altitude 10° 05:49:48 10° 187° (S) 1,514 -0.9 -20.5°
Sets 05:52:20 0° 166° (SSE) 2,348 0.3 -20.1°
